Simultaneous Nadir Overpasses (SNOs) Predictions

Prediction of SNOs between METOP-B and NPP Satellite Orbit:

Table of predicted SNOs for the next 14.0 days since TLE Epoch: 11/27/2018
Index Date (METOP-B) Time (METOP-B) Lat,Lon (METOP-B) SZA (METOP-B ) Date (NPP) Time (NPP) Lat,Lon (NPP) SZA (NPP ) Distance(km) Time Diff (sec)
1 12/11/2018 17:09:25 -73.57, 95.90 83.44 12/11/2018 17:08:18 -73.57, 93.06 83.34 89.63 67
2 12/11/2018 18:00:09 73.36, -97.24 96.37 12/11/2018 17:59:00 73.39, -99.22 96.47 63.27 69
3 12/11/2018 18:50:53 -73.25, 69.85 83.73 12/11/2018 18:49:42 -73.27, 68.35 83.65 48.16 71
4 12/11/2018 19:41:36 73.09,-123.17 96.12 12/11/2018 19:40:24 73.09,-123.94 96.16 24.95 72
5 12/11/2018 20:32:20 -72.98, 43.92 83.98 12/11/2018 20:31:06 -72.98, 43.61 83.96 10.03 74
6 12/11/2018 21:23:01 72.92,-148.88 95.97 12/11/2018 21:21:50 72.90,-148.90 95.96 2.89 71




NCC Satellite Simultaneous Nadir Overpasses (SNOs) Prediction Service
